Tracking 19792 objects as of 16-Jul-2019
HD Live streaming from Space Station
objects crossing your sky now

SHIJIAN-16 (SJ-16)

Track SHIJIAN-16 (SJ-16) now!
10-day predictions
SHIJIAN-16 (SJ-16) is classified as:


NORAD ID: 39358
Int'l Code: 2013-057A
Perigee: 605.0 km
Apogee: 632.8 km
Inclination: 75.0 °
Period: 96.9 minutes
Semi major axis: 6989 km
RCS: Unknown
Launch date: October 25, 2013
Source: People's Republic of China (PRC)
Launch site: Jiuquan Satellite Launch Center, China (JSC)

SHIJIAN-16 will be used mainly for conducting space environment exploration and technological experiments.
aabbcc
Your satellite tracking list
Your tracking list is empty




NASA's NSSDC Master Catalog

Two Line Element Set (TLE):
1 39358U 13057A   19197.09834010  .00000093  00000-0  13927-4 0  9994
2 39358  74.9759  67.8068 0019933 205.9257 154.0929 14.85582011310482
Source of the keplerian elements: AFSPC